Wind_Speed
25 25 25 25 25 25 25 26 25 25 26 26 26 25 25 26 27 28 28 29 30 32 32 33 32 33 33 33 33 33 32 32 32 32 32 32 32 32
23 22 23 23 23 23 23 24 24 24 23 24 24 24 24 24 25 26 26 27 28 30 31 31 31 31 32 32 33 33 33 32 32 32 31 31 31 32
20 20 21 22 22 22 21 21 22 22 22 21 21 22 23 23 24 25 26 27 27 28 29 29 29 29 30 30 31 31 31 31 31 31 31 31 32 32
17 17 18 19 19 18 19 19 20 20 21 21 20 21 22 22 22 23 24 25 25 26 27 27 27 28 27 27 28 28 29 30 30 30 30 31 31 32
15 15 15 15 15 15 16 17 18 19 19 20 20 20 21 21 21 22 22 22 23 23 23 23 24 24 24 24 25 26 27 28 28 29 29 30 31 31
14 14 14 13 13 13 14 15 16 17 18 19 19 18 18 19 19 19 19 20 20 20 20 20 21 21 22 22 23 24 24 25 27 28 28 29 29 30
12 12 11 12 12 12 13 13 14 15 16 16 16 15 15 16 16 16 16 16 16 16 17 18 19 20 20 20 21 21 22 23 24 25 26 27 27 28
10 9 10 10 11 11 11 12 12 13 12 13 13 13 13 13 13 13 14 15 15 15 15 16 16 17 17 18 19 20 21 22 22 22 23 24 25 26
9 9 9 9 10 10 10 11 11 11 11 10 10 10 10 10 11 11 12 13 13 14 14 14 15 15 15 16 17 18 19 20 20 21 21 23 24 25
9 9 9 9 10 9 9 9 9 9 9 8 8 7 7 8 8 9 10 10 11 12 12 12 13 13 13 13 15 16 17 18 19 19 20 20 21 22
9 8 8 9 9 9 8 8 9 9 8 7 7 6 7 7 7 7 8 9 9 10 11 11 12 12 13 13 14 14 15 15 16 18 18 19 20 21
8 8 9 9 8 9 8 8 8 8 8 7 6 7 6 6 6 6 7 7 7 8 9 10 10 11 11 13 14 14 14 15 16 17 18 19 20 21
8 8 8 8 8 8 8 8 8 8 7 6 6 6 6 6 6 6 7 7 8 9 10 10 10 11 12 13 13 14 14 15 16 17 17 19 20 20
9 8 8 8 8 8 8 8 8 8 7 7 6 6 6 6 6 6 7 8 9 9 10 10 10 11 12 13 14 15 15 15 15 16 17 18 20 21
9 9 9 8 8 8 8 8 7 7 7 7 7 7 7 6 6 7 7 8 9 10 11 11 12 13 13 14 15 15 15 16 17 18 18 19 20 21
9 9 9 9 9 9 9 8 8 8 8 8 8 8 7 8 9 10 10 10 11 12 13 14 15 15 15 15 16 16 17 18 19 20 20 21 22 23
11 11 10 10 10 9 9 9 10 10 10 10 10 9 9 10 10 11 11 12 13 14 15 15 15 16 16 17 18 19 20 20 21 22 22 23 23 24
12 12 11 11 11 11 11 11 12 12 12 12 12 12 12 12 12 13 13 14 14 15 16 16 17 17 18 18 19 20 21 22 23 23 24 24 25 26
13 13 13 13 13 12 13 12 13 13 14 14 14 14 14 14 15 15 15 15 16 16 17 18 19 19 20 20 20 22 23 24 24 25 25 26 27 27
14 14 14 14 14 14 14 14 14 15 16 16 16 16 16 16 17 17 17 17 18 19 19 19 20 21 23 23 23 24 25 26 27 27 27 27 27 28
15 15 15 16 16 16 16 16 17 17 17 18 18 18 18 18 18 19 19 20 20 21 21 21 22 24 25 25 25 25 26 27 27 28 28 29 29 29
17 18 18 18 18 17 17 18 18 19 20 20 20 20 20 20 21 21 22 22 23 24 24 25 25 26 26 27 27 27 28 28 29 30 30 31 31 31
19 20 20 20 20 20 20 21 21 21 21 22 22 22 22 23 24 24 25 25 26 26 27 27 27 27 27 28 29 29 30 30 30 30 31 31 32 32
Wind_Direction
287 284 279 275 274 274 272 271 272 271 271 268 267 266 266 265 263 262 261 261 259 259 258 258 260 258 257 256 255 254 255 255 256 256 256 256 258 259
287 284 281 277 276 274 272 270 270 271 271 268 266 265 264 265 263 262 261 261 261 260 259 258 258 258 257 256 255 254 254 254 255 254 254 256 257 259
289 286 283 280 276 276 271 270 270 271 271 273 272 267 266 266 264 263 262 262 262 262 260 258 257 258 258 257 255 256 255 254 254 255 256 257 259 260
293 290 288 286 280 275 272 272 273 273 272 273 275 271 266 265 266 265 264 263 262 263 261 257 256 256 256 256 255 255 254 254 255 256 257 258 260 261
294 295 295 293 288 285 280 277 276 274 274 274 274 273 271 268 266 266 264 263 263 262 260 257 255 254 254 254 254 255 255 255 255 256 257 259 259 260
301 301 301 301 299 293 290 287 281 279 277 277 276 275 274 272 268 266 264 261 260 259 258 256 255 254 253 254 255 255 254 256 256 256 257 258 259 259
310 307 307 304 301 296 292 291 289 286 285 284 279 277 276 274 269 264 263 260 258 258 257 254 253 253 253 254 256 257 258 259 259 258 257 257 258 259
319 315 313 312 310 308 305 303 302 298 295 291 286 278 277 273 269 263 262 258 256 255 256 253 253 254 254 255 256 257 259 260 260 259 258 257 258 259
325 321 320 322 324 322 319 316 316 314 304 298 293 288 284 277 270 264 259 255 253 253 254 255 254 256 258 257 257 259 261 259 260 261 260 259 259 260
330 327 326 327 329 328 329 327 326 324 318 312 303 296 288 279 271 262 255 250 249 249 252 254 255 256 259 259 259 261 263 262 262 263 262 262 262 263
337 333 328 328 327 325 326 326 326 326 326 326 318 305 294 280 267 262 258 254 254 251 253 256 258 260 261 261 262 265 267 266 265 264 265 265 265 265
339 336 334 333 332 331 330 330 330 326 320 318 318 314 310 300 279 266 259 254 254 256 259 262 263 263 263 264 266 267 269 271 273 272 269 269 269 270
349 346 348 349 347 346 344 341 337 335 329 324 317 313 312 307 295 280 264 256 261 265 265 266 265 267 268 269 270 271 272 274 274 274 274 274 274 273
347 353 355 353 352 349 345 343 343 345 342 329 316 310 304 300 298 293 280 271 271 271 268 268 270 275 274 274 275 276 275 276 278 278 277 277 278 278
345 344 348 347 347 349 347 344 344 343 337 332 324 309 297 293 294 294 290 286 281 276 277 273 279 281 279 277 279 281 281 281 282 283 284 283 282 282
344 341 338 335 336 338 338 336 333 333 332 327 322 317 308 299 296 293 288 285 284 284 284 281 285 284 282 282 282 285 286 285 284 284 285 285 285 285
341 339 337 331 327 325 324 323 323 321 320 319 317 313 307 302 301 302 297 290 286 285 285 285 285 285 285 284 284 285 287 288 288 287 286 287 288 287
338 333 330 327 324 320 316 313 312 312 311 311 310 307 304 303 302 299 296 292 291 289 287 287 289 288 287 285 285 286 288 290 290 287 287 288 289 289
333 329 326 324 319 315 313 310 309 307 306 304 304 304 303 301 302 300 298 296 294 291 289 288 289 289 291 291 288 287 289 290 291 290 289 289 289 289
329 327 323 321 318 317 314 311 308 307 306 304 302 301 302 301 300 298 296 297 296 294 292 291 290 289 289 290 290 289 289 290 290 289 289 290 290 290
322 322 320 318 317 314 312 311 309 306 305 304 302 300 299 300 299 298 296 294 295 295 294 293 292 291 290 289 290 291 291 290 290 289 289 290 290 289
318 316 315 314 313 313 311 309 308 306 304 303 301 299 298 297 296 296 297 296 295 293 293 294 293 292 291 291 291 291 291 291 291 290 289 291 291 290
316 314 313 311 309 307 307 306 305 304 302 301 301 301 299 297 295 294 294 294 294 294 293 293 293 292 293 292 291 292 292 293 292 291 289 289 289 289
Height
5747 5746 5744 5743 5742 5740 5739 5738 5738 5737 5737 5736 5736 5735 5735 5736 5736 5737 5738 5740 5741 5742 5744 5745 5747 5748 5750 5751 5753 5755 5757 5759 5761 5762 5764 5765 5766 5768
5740 5739 5737 5736 5734 5733 5732 5731 5730 5730 5729 5729 5728 5728 5728 5728 5729 5730 5731 5732 5733 5734 5735 5737 5738 5740 5741 5743 5745 5746 5748 5751 5752 5754 5755 5757 5759 5760
5734 5733 5731 5729 5728 5727 5726 5724 5724 5724 5723 5723 5722 5721 5721 5721 5722 5722 5723 5724 5725 5726 5727 5728 5730 5731 5733 5734 5736 5738 5740 5742 5744 5746 5747 5749 5750 5752
5729 5727 5725 5724 5722 5721 5720 5719 5718 5718 5717 5717 5716 5715 5715 5715 5716 5716 5716 5717 5718 5718 5719 5720 5722 5723 5725 5726 5728 5730 5732 5734 5736 5737 5739 5741 5742 5743
5724 5722 5721 5719 5718 5716 5715 5714 5713 5712 5712 5711 5710 5710 5709 5709 5709 5709 5710 5710 5711 5711 5712 5713 5715 5716 5718 5719 5721 5722 5724 5726 5728 5729 5731 5732 5733 5734
5721 5719 5717 5716 5714 5713 5711 5710 5709 5708 5707 5706 5705 5704 5704 5703 5703 5703 5703 5704 5705 5705 5706 5707 5709 5710 5712 5713 5715 5716 5717 5718 5719 5721 5723 5724 5725 5726
5718 5716 5714 5713 5711 5710 5708 5707 5705 5704 5702 5701 5700 5699 5699 5698 5698 5698 5699 5699 5700 5700 5701 5703 5704 5705 5706 5708 5709 5710 5711 5712 5712 5713 5715 5716 5717 5718
5715 5714 5712 5710 5709 5707 5705 5703 5702 5700 5699 5698 5696 5695 5695 5695 5694 5694 5694 5695 5696 5697 5697 5699 5699 5700 5701 5702 5703 5704 5705 5705 5706 5706 5707 5708 5709 5710
5714 5712 5710 5709 5707 5705 5703 5701 5699 5697 5696 5695 5693 5692 5692 5691 5691 5691 5691 5691 5692 5693 5694 5694 5695 5696 5697 5697 5698 5699 5699 5699 5700 5700 5701 5702 5702 5703
5713 5711 5709 5707 5705 5703 5702 5700 5698 5696 5694 5692 5691 5690 5689 5689 5688 5688 5688 5688 5689 5690 5690 5691 5691 5692 5693 5693 5694 5694 5694 5694 5694 5695 5695 5695 5695 5696
5712 5710 5707 5706 5704 5702 5700 5698 5697 5695 5693 5691 5690 5689 5688 5687 5686 5686 5686 5686 5687 5687 5688 5688 5688 5689 5689 5689 5689 5690 5690 5690 5689 5690 5689 5689 5689 5689
5711 5708 5706 5705 5703 5701 5699 5697 5696 5694 5692 5690 5689 5688 5686 5685 5685 5684 5684 5684 5685 5685 5685 5685 5685 5686 5686 5686 5686 5685 5685 5685 5685 5684 5684 5684 5683 5682
5710 5708 5706 5704 5702 5700 5698 5697 5695 5693 5691 5689 5688 5686 5685 5684 5683 5683 5682 5682 5682 5682 5683 5682 5682 5682 5682 5682 5681 5681 5681 5680 5680 5679 5678 5678 5677 5676
5710 5707 5706 5703 5701 5699 5698 5696 5694 5692 5690 5688 5687 5685 5684 5683 5682 5682 5681 5680 5680 5680 5680 5679 5679 5679 5678 5678 5677 5677 5676 5675 5674 5674 5673 5672 5671 5670
5709 5707 5705 5703 5701 5699 5697 5695 5693 5691 5690 5688 5686 5685 5683 5682 5681 5680 5679 5679 5678 5677 5677 5676 5676 5675 5674 5674 5673 5672 5671 5670 5669 5668 5667 5666 5664 5663
5709 5706 5704 5702 5700 5698 5696 5694 5692 5691 5689 5687 5685 5684 5682 5681 5680 5678 5677 5676 5675 5675 5674 5673 5672 5671 5670 5669 5668 5667 5666 5665 5663 5662 5661 5659 5658 5656
5707 5705 5703 5701 5699 5697 5695 5694 5691 5689 5687 5685 5684 5682 5681 5679 5677 5676 5675 5673 5672 5671 5670 5669 5667 5666 5665 5664 5663 5661 5660 5658 5657 5655 5654 5652 5650 5648
5706 5704 5701 5699 5697 5695 5693 5691 5690 5688 5685 5683 5682 5680 5678 5676 5675 5673 5671 5670 5668 5667 5665 5664 5662 5661 5660 5659 5657 5655 5653 5652 5650 5648 5646 5644 5643 5641
5704 5702 5699 5697 5695 5693 5691 5689 5687 5685 5682 5680 5679 5677 5675 5673 5671 5669 5667 5666 5664 5662 5660 5659 5657 5655 5653 5652 5651 5649 5647 5645 5642 5640 5638 5636 5634 5633
5702 5700 5697 5695 5692 5690 5688 5685 5683 5681 5679 5677 5675 5673 5671 5669 5667 5664 5663 5661 5658 5656 5655 5653 5651 5649 5647 5645 5644 5642 5640 5637 5635 5633 5630 5628 5626 5624
5700 5697 5694 5692 5689 5687 5684 5682 5680 5677 5675 5673 5670 5668 5666 5664 5661 5659 5657 5655 5653 5650 5648 5646 5644 5642 5639 5638 5636 5634 5632 5629 5627 5624 5622 5620 5617 5615
5696 5694 5691 5688 5685 5683 5680 5678 5675 5673 5670 5668 5665 5663 5660 5658 5656 5653 5651 5649 5646 5644 5642 5639 5637 5634 5632 5630 5627 5625 5623 5621 5618 5615 5613 5611 5608 5605
5692 5689 5686 5683 5680 5678 5675 5672 5670 5667 5664 5662 5659 5657 5654 5652 5649 5647 5644 5642 5639 5636 5634 5631 5629 5626 5624 5621 5619 5616 5614 5611 5609 5606 5604 5602 5599 5596